Location: Ciechanow
(52.8812°N, 20.6195°E)
Time: 13:27:28
(UTC+01:00)

ISS - Pass Details

Date: 01 February 2019
Orbit: 403 x 411 km, 51.6° (Epoch: 23 February)

Event Time Altitude Azimuth Distance (km) Brightness Sun altitude
Rises 17:18:07 0° 260° (W) 2,332 2.3 -8.7°
Reaches altitude 10° 17:20:12 10° 258° (WSW) 1,474 0.7 -9.0°
Maximum altitude 17:23:29 70° 174° (S) 441 -3.6 -9.5°
Enters shadow 17:26:17 14° 92° (E) 1,275 -1.9 -9.9°
